Weather History for Greenville/Spartanburg, SC

Change the Weather History Date:

Sunday, August 10, 2014

  Actual Average Record
Temperature  
Mean Temperature 69 °F 79 °F  
Max Temperature 72 °F 89 °F 105 °F (2007)
Min Temperature 65 °F 69 °F 58 °F (1989)
Degree Days  
Heating Degree Days 0 0  
Month to date heating degree days 0 0  
Since 1 June heating degree days 0 2  
Since 1 July heating degree days 0 0  
Cooling Degree Days 4 14  
Month to date cooling degree days 98 146  
Year to date cooling degree days 1124 1158  
Since 1 June cooling degree days 868 957  
Growing Degree Days 18 (Base 50)    
Moisture  
Dew Point 67 °F    
Average Humidity 95    
Maximum Humidity 100    
Minimum Humidity 90    
Precipitation  
Precipitation 0.12 in 0.15 in 2.21 in (1928)
Month to date precipitation 4.40 1.52  
Year to date precipitation 33.76 29.55  
Snow  
Snow 0.00 in 0.00 in 0.00 in ()
Month to date snowfall 0.0 0.0  
Since 1 June snowfall 0.0 0.0  
Since 1 July snowfall 0.0 0.0  
Snow Depth 0.00 in    
Sea Level Pressure  
Sea Level Pressure 30.04 in    
Wind  
Wind Speed 8 mph (NNE)    
Max Wind Speed 14 mph    
Max Gust Speed 19 mph    
Visibility 8 miles    
Events Rain    
T = Trace of Precipitation, MM = Missing Value Source: NWS Daily Summary

Daily Weather History Graph

Daily Weather History Graph

Search for Another Location

Airport:

Trip Planner

Search our weather history database for the weather conditions in past years. The results will help you decide how hot, cold, wet, or windy it might be!

Date:

Astronomy

Aug. 10, 2014 Rise Set
Actual Time 6:45 AM EDT 8:22 PM EDT
Civil Twilight 6:18 AM EDT 8:49 PM EDT
Nautical Twilight 5:45 AM EDT 9:22 PM EDT
Astronomical Twilight 5:11 AM EDT 9:56 PM EDT
Moon 8:11 PM EDT (8/10) 6:34 AM EDT (8/10)
Length of Visible Light 14h 31m
Length of Day
13h 37m
Full, 100% of the Moon is Illuminated
Aug 10
Full
Aug 10
Full
Aug 17
Last Quarter
Aug 25
New
Sep 2
First Quarter

Hourly Weather History & Observations

Time (EDT) Temp. Dew Point Humidity Pressure Visibility Wind Dir Wind Speed Gust Speed Precip Events Conditions
12:02 AM 70.0 °F 69.1 °F 97% 30.06 in 10.0 mi NNE 10.4 mph - 0.33 in Rain Heavy Rain
12:50 AM 69.8 °F 68.0 °F 94% 30.06 in 10.0 mi NE 12.7 mph - 0.58 in Rain Rain
12:51 AM 69.1 °F 68.0 °F 96% 30.03 in 10.0 mi NE 13.8 mph - 0.58 in Rain Rain
1:53 AM 68.0 °F 66.9 °F 96% 30.02 in 10.0 mi NNE 10.4 mph - 0.13 in Rain Light Rain
2:21 AM 68.0 °F 66.9 °F 96% 30.05 in 10.0 mi NNE 11.5 mph - 0.00 in   Overcast
2:43 AM 66.9 °F 66.0 °F 97% 30.05 in 10.0 mi NNE 12.7 mph - 0.00 in   Overcast
2:53 AM 66.9 °F 66.0 °F 97% 30.02 in 10.0 mi NNE 9.2 mph - 0.00 in   Overcast
3:43 AM 66.9 °F 66.0 °F 97% 30.01 in 10.0 mi NE 10.4 mph - 0.00 in Rain Light Rain
3:53 AM 66.9 °F 66.0 °F 97% 29.97 in 10.0 mi NNE 9.2 mph - 0.00 in   Overcast
4:53 AM 66.2 °F 64.4 °F 94% 30.02 in 10.0 mi NE 10.4 mph - N/A   Overcast
5:53 AM 66.0 °F 64.9 °F 96% 30.01 in 10.0 mi NE 10.4 mph - 0.00 in   Overcast
6:53 AM 64.9 °F 64.0 °F 97% 30.04 in 5.0 mi NE 9.2 mph - N/A   Overcast
7:53 AM 66.0 °F 64.9 °F 96% 30.06 in 10.0 mi NNE 6.9 mph - N/A   Overcast
8:53 AM 66.0 °F 64.9 °F 96% 30.06 in 2.5 mi NNE 8.1 mph - N/A   Overcast
9:53 AM 66.2 °F 66.2 °F 100% 30.10 in 2.5 mi NNE 9.2 mph - N/A   Overcast
10:53 AM 68.0 °F 66.0 °F 93% 30.08 in 5.0 mi NNE 8.1 mph - N/A   Overcast
11:53 AM 68.0 °F 66.0 °F 93% 30.08 in 10.0 mi NNE 9.2 mph - N/A   Overcast
12:32 PM 68.0 °F 66.9 °F 96% 30.10 in 2.5 mi NNE 10.4 mph - 0.01 in   Overcast
12:53 PM 69.1 °F 66.9 °F 93% 30.07 in 5.0 mi NNE 9.2 mph - 0.02 in   Overcast
1:53 PM 70.0 °F 66.9 °F 90% 30.06 in 5.0 mi NNE 6.9 mph - N/A   Overcast
2:53 PM 70.0 °F 68.0 °F 93% 30.05 in 4.0 mi NNE 9.2 mph - N/A   Overcast
3:53 PM 71.1 °F 68.0 °F 90% 30.04 in 10.0 mi NE 8.1 mph - N/A   Overcast
4:53 PM 71.1 °F 68.0 °F 90% 30.03 in 10.0 mi NNE 9.2 mph - N/A   Overcast
5:53 PM 72.0 °F 68.0 °F 87% 30.03 in 10.0 mi North 6.9 mph - N/A   Overcast
6:53 PM 70.0 °F 68.0 °F 93% 30.02 in 10.0 mi NE 5.8 mph - N/A   Overcast
7:53 PM 69.8 °F 66.2 °F 88% 30.04 in 10.0 mi NE 9.2 mph - N/A   Overcast
8:51 PM 69.8 °F 66.2 °F 88% 30.05 in 10.0 mi NE 6.9 mph - N/A   Overcast
8:53 PM 69.1 °F 66.9 °F 93% 30.03 in 10.0 mi NE 5.8 mph - N/A   Overcast
9:53 PM 69.1 °F 66.9 °F 93% 30.04 in 10.0 mi NE 5.8 mph - N/A   Overcast
10:53 PM 69.1 °F 66.9 °F 93% 30.05 in 10.0 mi NNE 5.8 mph - N/A   Overcast
11:53 PM 69.8 °F 66.2 °F 88% 30.08 in 10.0 mi NNE 6.9 mph - N/A   Overcast